This demonstration page uses our WeatherBlox Daily Observations layout. Learn more.

Left ArrowRight Arrow

39.12711, -84.51439

Hourly Observations for December 26, 2018

Temp ( °F °C ) Dew Point ( °F °C ) Humidity (%) Winds ( mph kmh ) Pressure ( in mb ) Visibility ( mi km ) Precip ( " mm )
12:53 am 00:53 Clear with Mist and Fog 28 -2.2 26 -3.3 92 92 Calm 30.44 1031 6 10 0.00 0.00
1:08 am 01:08 Clear with Mist and Fog 27 -2.8 26 -3.3 96 96 Calm 30.45 1031 2 2 0.00 0.00
1:14 am 01:14 Mostly Cloudy with Freezing Fog 27 -2.8 25 -3.9 92 92 Calm 30.45 1031 1 1 0.00 0.00
1:21 am 01:21 Mostly Cloudy with Freezing Fog 27 -2.8 25 -3.9 92 92 Calm 30.45 1031 0 0 0.00 0.00
1:29 am 01:29 Mostly Cloudy with Mist and Fog 27 -2.8 25 -3.9 92 92 Calm 30.45 1031 1 1 0.00 0.00
1:39 am 01:39 Mostly Clear with Mist and Fog 28 -2.2 26 -3.3 92 92 Calm 30.45 1031 1 2 0.00 0.00
1:46 am 01:46 Mostly Clear with Mist and Fog 27 -2.8 26 -3.3 96 96 Calm 30.45 1031 3 5 0.00 0.00
1:53 am 01:53 Clear with Mist and Fog 27 -2.8 26 -3.3 96 96 Calm 30.44 1031 4 6 0.00 0.00
2:53 am 02:53 Clear with Mist and Fog 27 -2.8 26 -3.3 96 96 Calm 30.47 1032 5 8 0.00 0.00
3:53 am 03:53 Clear with Mist and Fog 27 -2.8 25 -3.9 92 92 Calm 30.48 1032 4 6 0.00 0.00
4:53 am 04:53 Mostly Clear with Mist and Fog 26 -3.3 24 -4.4 92 92 Calm 30.48 1032 3 5 0.00 0.00
5:10 am 05:10 Clear with Mist and Fog 26 -3.3 25 -3.9 96 96 Calm 30.50 1033 2 2 0.00 0.00
5:21 am 05:21 Clear with Mist and Fog 26 -3.3 25 -3.9 96 96 Calm 30.50 1033 1 1 0.00 0.00
5:31 am 05:31 Clear with Mist and Fog 26 -3.3 25 -3.9 96 96 Calm 30.50 1033 2 2 0.00 0.00
5:38 am 05:38 Clear with Mist and Fog 26 -3.3 25 -3.9 96 96 Calm 30.50 1033 3 5 0.00 0.00
5:53 am 05:53 Clear with Mist and Fog 26 -3.3 24 -4.4 92 92 Calm 30.48 1032 5 8 0.00 0.00
6:53 am 06:53 Clear 25 -3.9 23 -5 92 92 NNE 3 6 30.50 1033 7 11 0.00 0.00
7:53 am 07:53 Partly Cloudy with Mist and Fog 26 -3.3 24 -4.4 92 92 Calm 30.53 1034 5 8 0.00 0.00
8:53 am 08:53 Sunny with Mist and Fog 27 -2.8 25 -3.9 92 92 NNE 3 6 30.53 1034 6 10 0.00 0.00
9:53 am 09:53 Sunny 32 0 29 -1.7 88 88 Calm 30.54 1034 10 16 0.00 0.00
10:53 am 10:53 Sunny 35 1.7 31 -0.6 85 85 Calm 30.54 1034 10 16 0.00 0.00
11:53 am 11:53 Sunny 40 4.4 33 0.6 77 77 VRB 3 6 30.51 1033 10 16 0.00 0.00
12:53 pm 12:53 Sunny 45 7.2 32 0 61 61 VRB 3 6 30.47 1032 10 16 0.00 0.00
1:53 pm 13:53 Sunny 49 9.4 30 -1.1 48 48 VRB 7 11 30.44 1031 10 16 0.00 0.00
2:53 pm 14:53 Sunny 50 10 31 -0.6 48 48 SE 6 9 30.43 1030 10 16 0.00 0.00
3:53 pm 15:53 Sunny 48 8.9 29 -1.7 48 48 VRB 5 7 30.43 1031 10 16 0.00 0.00
4:53 pm 16:53 Sunny 45 7.2 28 -2.2 52 52 E 5 7 30.43 1030 10 16 0.00 0.00
5:53 pm 17:53 Clear 39 3.9 30 -1.1 70 70 NE 5 7 30.42 1030 10 16 0.00 0.00
6:53 pm 18:53 Clear 36 2.2 30 -1.1 79 79 Calm 30.43 1030 10 16 0.00 0.00
7:53 pm 19:53 Clear 33 0.6 30 -1.1 89 89 NNE 5 7 30.43 1031 10 16 0.00 0.00
8:53 pm 20:53 Clear 33 0.6 30 -1.1 89 89 Calm 30.42 1030 10 16 0.00 0.00
9:53 pm 21:53 Clear 32 0 29 -1.7 88 88 Calm 30.40 1030 7 11 0.00 0.00
10:53 pm 22:53 Clear 30 -1.1 29 -1.7 96 96 Calm 30.39 1029 9 14 0.00 0.00
11:53 pm 23:53 Clear 31 -0.6 29 -1.7 92 92 Calm 30.38 1029 9 14 0.00 0.00

Powered by AerisWeather